Concordia, KS

10:33 AM CDT on October 19, 2019 (GMT -0500)
Blosser Municipal

Weather History for KCNK - August, 2019

Change the Weather History Date:

Friday, August 16, 2019

  Actual Average Record
Temperature  
Mean Temperature 77 °F 77 °F  
Max Temperature 86 °F 89 °F 108 °F (1983)
Min Temperature 68 °F 66 °F 51 °F (1897)
Degree Days  
Heating Degree Days 0 0  
Month to date heating degree days 0 0  
Since 1 June heating degree days 0 13  
Since 1 July heating degree days 0 0  
Cooling Degree Days 12 12  
Month to date cooling degree days 210 212  
Year to date cooling degree days 1115 1002  
Since 1 June cooling degree days 1015 913  
Growing Degree Days 27 (Base 50)    
Moisture  
Dew Point 69 °F    
Average Humidity 79    
Maximum Humidity 93    
Minimum Humidity 65    
Precipitation  
Precipitation 0.01 in 0.10 in 3.14 in (1977)
Month to date precipitation 4.19 1.70  
Year to date precipitation 26.42 19.66  
Snow  
Snow 0.00 in 0.00 in T in (1945)
Month to date snowfall 0.0 0.0  
Year to date snowfall 32.3 13.7  
Since 1 July snowfall 0.0 0.0  
Snow Depth 0.00 in    
Sea Level Pressure  
Sea Level Pressure 29.87 in    
Wind  
Wind Speed 8 mph (ENE)    
Max Wind Speed 17 mph    
Max Gust Speed 26 mph    
Visibility 9 miles    
Events Thunderstorm    
T = Trace of Precipitation, MM = Missing Value Source: NWS Daily Summary

Daily Weather History Graph

Daily Weather History Graph

Search for Another Location

Airport or City:

Astronomy

Aug. 16, 2019 Rise Set
Actual Time 6:43 AM CDT 8:25 PM CDT
Civil Twilight 6:15 AM CDT 8:53 PM CDT
Nautical Twilight 5:40 AM CDT 9:28 PM CDT
Astronomical Twilight 5:03 AM CDT 10:05 PM CDT
Moon 9:25 PM CDT (8/16) 7:36 AM CDT (8/16)
Length of Visible Light 14h 38m
Length of Day
13h 41m
Full, 99% of the Moon is Illuminated
Aug 16
Full
Aug 23
Last Quarter
Aug 30
New
Sep 5
First Quarter
Sep 13
Full

Hourly Weather History & Observations

Time (CDT) Temp. Heat Index Dew Point Humidity Pressure Visibility Wind Dir Wind Speed Gust Speed Precip Events Conditions
12:53 AM 71.6 °F - 66.2 °F 83% 29.92 in 10.0 mi NE 8.1 mph - N/A   Overcast
12:55 AM 71.1 °F - 66.9 °F 87% 29.88 in 10.0 mi NE 8.1 mph - N/A   Overcast
1:33 AM 70.0 °F - 66.9 °F 90% 29.91 in 10.0 mi NE 4.6 mph - N/A   Overcast
1:43 AM 70.0 °F - 66.9 °F 90% 29.90 in 10.0 mi NE 5.8 mph - N/A   Overcast
1:55 AM 70.0 °F - 66.9 °F 90% 29.86 in 10.0 mi NE 6.9 mph - N/A   Mostly Cloudy
2:07 AM 70.0 °F - 66.9 °F 90% 29.89 in 10.0 mi ENE 4.6 mph - N/A   Mostly Cloudy
2:36 AM 69.1 °F - 66.9 °F 93% 29.89 in 10.0 mi East 3.5 mph - N/A   Partly Cloudy
2:55 AM 69.1 °F - 66.9 °F 93% 29.85 in 10.0 mi East 4.6 mph - N/A   Clear
3:55 AM 68.0 °F - 66.9 °F 96% 29.84 in 10.0 mi Calm Calm - N/A   Clear
4:55 AM 68.0 °F - 66.9 °F 96% 29.86 in 8.0 mi NNE 4.6 mph - N/A   Mostly Cloudy
5:41 AM 68.0 °F - 66.0 °F 93% 29.91 in 8.0 mi NE 5.8 mph - N/A   Partly Cloudy
5:55 AM 68.0 °F - 66.0 °F 93% 29.86 in 8.0 mi NE 6.9 mph - N/A   Scattered Clouds
6:06 AM 68.0 °F - 66.9 °F 96% 29.92 in 9.0 mi NNE 4.6 mph - N/A   Mostly Cloudy
6:28 AM 68.0 °F - 66.2 °F 94% 29.91 in 8.0 mi NNE 4.6 mph - N/A   Mostly Cloudy
6:36 AM 68.0 °F - 66.0 °F 93% 29.91 in 8.0 mi NE 5.8 mph - N/A   Scattered Clouds
6:55 AM 68.0 °F - 66.0 °F 93% 29.92 in 7.0 mi NNW 8.1 mph - N/A   Partly Cloudy
7:03 AM 68.0 °F - 66.0 °F 93% 29.97 in 9.0 mi NNW 9.2 mph - N/A   Mostly Cloudy
7:17 AM 68.0 °F - 66.9 °F 96% 29.97 in 7.0 mi North 9.2 mph - N/A   Mostly Cloudy
7:55 AM 68.0 °F - 66.9 °F 96% 29.89 in 3.0 mi NE 12.7 mph - N/A   Overcast
8:55 AM 69.1 °F - 66.9 °F 93% 29.95 in 10.0 mi NNW 9.2 mph - N/A   Overcast
9:10 AM 70.0 °F - 66.9 °F 90% 29.98 in 10.0 mi North 6.9 mph - N/A   Overcast
9:47 AM 71.1 °F - 66.9 °F 87% 29.91 in 10.0 mi ENE 16.1 mph 24.2 mph N/A   Overcast
9:55 AM 71.1 °F - 66.9 °F 87% 29.87 in 10.0 mi ENE 12.7 mph 24.2 mph N/A   Overcast
10:55 AM 73.9 °F - 69.1 °F 85% 29.88 in 10.0 mi East 11.5 mph - N/A   Overcast
11:12 AM 75.0 °F - 69.1 °F 82% 29.95 in 10.0 mi SE 10.4 mph - N/A   Mostly Cloudy
11:24 AM 77.0 °F - 69.1 °F 76% 29.96 in 10.0 mi East 6.9 mph - N/A   Mostly Cloudy
11:55 AM 78.1 °F - 70.0 °F 76% 29.89 in 10.0 mi ESE 10.4 mph - N/A   Overcast
12:19 PM 78.1 °F - 69.1 °F 74% 29.90 in 10.0 mi ESE 9.2 mph 18.4 mph N/A   Scattered Clouds
1:55 PM 82.9 °F 88.0 °F 72.0 °F 69% 29.82 in 10.0 mi East 5.8 mph - N/A   Clear
2:52 PM 84.2 °F 90.9 °F 73.4 °F 70% 29.88 in 10.0 mi South 12.7 mph 20.7 mph N/A   Mostly Cloudy
2:55 PM 82.9 °F 88.8 °F 73.0 °F 72% 29.84 in 10.0 mi SSE 16.1 mph 20.7 mph N/A   Mostly Cloudy
3:25 PM 84.0 °F 90.2 °F 73.0 °F 69% 29.87 in 10.0 mi South 9.2 mph - N/A   Scattered Clouds
3:55 PM 84.0 °F 90.2 °F 73.0 °F 69% 29.82 in 10.0 mi South 10.4 mph - N/A   Partly Cloudy
4:22 PM 84.9 °F 91.4 °F 73.0 °F 67% 29.85 in 10.0 mi SE 8.1 mph - N/A   Mostly Cloudy
4:47 PM 84.9 °F 91.4 °F 73.0 °F 67% 29.85 in 10.0 mi SSE 6.9 mph - N/A   Partly Cloudy
4:55 PM 84.9 °F 90.7 °F 72.0 °F 65% 29.80 in 10.0 mi SSE 6.9 mph - N/A   Partly Cloudy
5:55 PM 84.9 °F 90.7 °F 72.0 °F 65% 29.79 in 10.0 mi ESE 5.8 mph - N/A   Clear
6:55 PM 84.0 °F 91.2 °F 73.9 °F 72% 29.77 in 10.0 mi ESE 6.9 mph - N/A   Clear
7:55 PM 80.1 °F 84.2 °F 73.0 °F 79% 29.77 in 10.0 mi ESE 4.6 mph - N/A   Clear
8:55 PM 79.0 °F - 73.0 °F 82% 29.78 in 10.0 mi East 4.6 mph - N/A   Clear
9:55 PM 78.1 °F - 73.0 °F 84% 29.79 in 10.0 mi East 4.6 mph - N/A   Clear
10:55 PM 77.0 °F - 73.9 °F 90% 29.79 in 10.0 mi ENE 5.8 mph - N/A   Overcast
11:44 PM 78.1 °F - 73.9 °F 87% 29.82 in 10.0 mi ENE 5.8 mph - N/A Thunderstorm Overcast
11:55 PM 78.1 °F - 73.0 °F 84% 29.74 in 10.0 mi NE 5.8 mph - N/A Thunderstorm Overcast